Location: Ergnies
(50.0854°N, 2.0375°E)
Time: 20:37:02
(UTC+00:00)

Cosmos 540 Rocket - Pass Details

Date: 14 January 2026
Orbit: 736 x 747 km, 74.1° (Epoch: 13 February)

Event Time Altitude Azimuth Distance (km) Brightness Sun altitude
Exits shadow 05:57:07 - 343° (NNW) 2,507 5.9 -16.8°
Reaches altitude 10° 05:57:48 10° 345° (NNW) 2,253 5.6 -16.6°
Maximum altitude 06:02:44 48° 60° (ENE) 959 4.3 -15.9°
Drops below altitude 10° 06:07:38 10° 135° (SE) 2,241 6.9 -15.1°
Sets 06:10:03 0° 141° (SE) 3,161 7.6 -14.7°
